| time (UTC) | temp F | wind direction | speed MPH | gust MPH | rain 1hr in | rain 24hr in | rain mn in | humidity % | barometer mb |
| 20260510124532 | 74 | 135 | 5.0 | 13.0 | 0.00 | 0.02 | 0.00 | 56 | 1012.8 |
| 20260510123557 | 73 | 135 | 7.0 | 13.0 | 0.00 | 0.03 | 0.00 | 54 | 1012.9 |
| 20260510122541 | 74 | 180 | 6.0 | 14.0 | 0.00 | 0.05 | 0.00 | 54 | 1013.1 |
| 20260510121521 | 75 | 225 | 3.0 | 13.0 | 0.00 | 0.08 | 0.00 | 50 | 1013.1 |
| 20260510120521 | 74 | 225 | 6.0 | 12.0 | 0.00 | 0.11 | 0.00 | 48 | 1013.4 |
| 20260510115525 | 73 | 293 | 6.0 | 13.0 | 0.00 | 0.13 | 0.00 | 47 | 1013.5 |
| 20260510114521 | 74 | 225 | 4.0 | 10.0 | 0.00 | 0.13 | 0.00 | 47 | 1013.8 |
| 20260510113521 | 74 | 225 | 4.0 | 14.0 | 0.00 | 0.13 | 0.00 | 47 | 1013.7 |
| 20260510112521 | 74 | 225 | 2.0 | 9.0 | 0.00 | 0.14 | 0.00 | 47 | 1013.9 |
| 20260510111521 | 73 | 225 | 3.0 | 11.0 | 0.00 | 0.15 | 0.00 | 50 | 1014.0 |
| 20260510110522 | 73 | 248 | 3.0 | 9.0 | 0.00 | 0.16 | 0.00 | 50 | 1014.2 |
| 20260510105521 | 72 | 225 | 4.0 | 12.0 | 0.00 | 0.16 | 0.00 | 51 | 1014.2 |
| 20260510104521 | 72 | 293 | 1.0 | 5.0 | 0.00 | 0.17 | 0.00 | 53 | 1014.4 |
| 20260510103525 | 71 | 293 | 6.0 | 12.0 | 0.00 | 0.17 | 0.00 | 56 | 1014.5 |
| 20260510102524 | 71 | 113 | 1.0 | 4.0 | 0.00 | 0.19 | 0.00 | 58 | 1014.5 |
| 20260510101523 | 70 | 113 | 1.0 | 8.0 | 0.00 | 0.21 | 0.00 | 59 | 1014.6 |
| 20260510100521 | 70 | 0.0 | 5.0 | 0.00 | 0.23 | 0.00 | 61 | 1014.7 | |
| 20260510095523 | 69 | 293 | 2.0 | 5.0 | 0.00 | 0.26 | 0.00 | 61 | 1014.8 |
| 20260510094523 | 68 | 225 | 2.0 | 7.0 | 0.00 | 0.28 | 0.00 | 63 | 1014.8 |
| 20260510093522 | 68 | 180 | 3.0 | 8.0 | 0.00 | 0.30 | 0.00 | 63 | 1014.8 |
| 20260510092523 | 68 | 203 | 3.0 | 9.0 | 0.00 | 0.35 | 0.00 | 62 | 1014.8 |
| 20260510091523 | 67 | 135 | 3.0 | 7.0 | 0.00 | 0.37 | 0.00 | 64 | 1014.8 |
| 20260510090523 | 67 | 135 | 2.0 | 7.0 | 0.00 | 0.39 | 0.00 | 65 | 1014.9 |
| 20260510085523 | 67 | 180 | 2.0 | 6.0 | 0.00 | 0.39 | 0.00 | 63 | 1014.9 |
| 20260510084523 | 67 | 180 | 1.0 | 5.0 | 0.00 | 0.39 | 0.00 | 62 | 1014.9 |
| 20260510083522 | 67 | 180 | 1.0 | 3.0 | 0.00 | 0.39 | 0.00 | 61 | 1014.9 |
| 20260510082523 | 66 | 203 | 1.0 | 6.0 | 0.00 | 0.39 | 0.00 | 64 | 1015.0 |
| 20260510081523 | 65 | 203 | 4.0 | 8.0 | 0.00 | 0.39 | 0.00 | 65 | 1015.0 |
| 20260510080522 | 65 | 203 | 3.0 | 6.0 | 0.00 | 0.39 | 0.00 | 65 | 1015.1 |
| 20260510075527 | 65 | 225 | 2.0 | 5.0 | 0.00 | 0.39 | 0.00 | 63 | 1015.0 |
| 20260510074522 | 65 | 0.0 | 6.0 | 0.00 | 0.39 | 0.00 | 65 | 1015.1 | |
| 20260510073522 | 64 | 0.0 | 1.0 | 0.00 | 0.39 | 0.00 | 68 | 1015.0 | |
| 20260510072523 | 63 | 0.0 | 1.0 | 0.00 | 0.39 | 0.00 | 69 | 1014.9 | |
| 20260510071522 | 62 | 270 | 1.0 | 3.0 | 0.00 | 0.39 | 0.00 | 70 | 1014.9 |
| 20260510070523 | 61 | 225 | 2.0 | 6.0 | 0.00 | 0.39 | 0.00 | 74 | 1014.8 |
| 20260510065522 | 61 | 225 | 1.0 | 5.0 | 0.00 | 0.39 | 0.00 | 76 | 1014.8 |
| 20260510064523 | 60 | 0.0 | 3.0 | 0.00 | 0.39 | 0.00 | 79 | 1014.6 | |
| 20260510063522 | 58 | 225 | 1.0 | 4.0 | 0.00 | 0.39 | 0.00 | 84 | 1014.6 |
| 20260510062527 | 57 | 225 | 1.0 | 3.0 | 0.00 | 0.39 | 0.00 | 84 | 1014.6 |
| 20260510061522 | 57 | 203 | 1.0 | 3.0 | 0.00 | 0.39 | 0.00 | 84 | 1014.4 |
| 20260510060524 | 57 | 0.0 | 1.0 | 0.00 | 0.39 | 0.00 | 86 | 1014.3 | |
| 20260510055522 | 56 | 0.0 | 3.0 | 0.00 | 0.39 | 0.00 | 87 | 1014.2 | |
| 20260510054522 | 55 | 293 | 1.0 | 3.0 | 0.00 | 0.39 | 0.00 | 89 | 1014.1 |
| 20260510053546 | 55 | 293 | 1.0 | 3.0 | 0.00 | 0.39 | 0.00 | 89 | 1014.0 |
| 20260510052523 | 54 | 0.0 | 1.0 | 0.00 | 0.39 | 0.00 | 90 | 1013.9 | |
| 20260510051522 | 54 | 0.0 | 1.0 | 0.00 | 0.39 | 0.00 | 90 | 1013.8 | |
| 20260510050522 | 54 | 0.0 | 3.0 | 0.00 | 0.39 | 0.00 | 88 | 1013.7 | |
| 20260510045524 | 56 | 0.0 | 2.0 | 0.00 | 0.39 | 0.00 | 86 | 1013.8 | |
| 20260510044524 | 56 | 0.0 | 2.0 | 0.00 | 0.39 | 0.00 | 88 | 1013.8 | |
| 20260510043520 | 56 | 248 | 1.0 | 4.0 | 0.00 | 0.39 | 0.00 | 86 | 1013.8 |
| 20260510042522 | 56 | 293 | 2.0 | 5.0 | 0.00 | 0.39 | 0.00 | 89 | 1013.8 |
| 20260510041522 | 55 | 0.0 | 2.0 | 0.00 | 0.39 | 0.00 | 91 | 1013.6 | |
| 20260510040522 | 54 | 0.0 | 1.0 | 0.00 | 0.39 | 0.00 | 92 | 1013.6 | |
| 20260510035522 | 54 | 0.0 | 2.0 | 0.00 | 0.39 | 0.00 | 92 | 1013.5 | |
| 20260510034522 | 54 | 0.0 | 0.0 | 0.00 | 0.39 | 0.00 | 92 | 1013.6 | |
| 20260510033543 | 54 | 0.0 | 2.0 | 0.00 | 0.39 | 0.00 | 92 | 1013.6 | |
| 20260510032542 | 54 | 0.0 | 2.0 | 0.00 | 0.39 | 0.00 | 92 | 1013.6 | |
| 20260510031522 | 54 | 248 | 1.0 | 4.0 | 0.00 | 0.39 | 0.00 | 92 | 1013.6 |
| 20260510030544 | 54 | 0.0 | 1.0 | 0.00 | 0.39 | 0.00 | 92 | 1013.7 | |
| 20260510025522 | 54 | 0.0 | 0.0 | 0.00 | 0.39 | 0.00 | 92 | 1013.7 | |
| 20260510024521 | 54 | 0.0 | 3.0 | 0.00 | 0.39 | 0.00 | 92 | 1013.7 | |
| 20260510023542 | 55 | 0.0 | 0.0 | 0.00 | 0.39 | 0.00 | 92 | 1013.6 | |
| 20260510022523 | 55 | 0.0 | 1.0 | 0.00 | 0.39 | 0.00 | 91 | 1013.7 | |
| 20260510021524 | 55 | 0.0 | 2.0 | 0.00 | 0.39 | 0.00 | 92 | 1013.8 | |
| 20260510020542 | 55 | 0.0 | 2.0 | 0.00 | 0.39 | 0.00 | 92 | 1013.8 | |
| 20260510015522 | 55 | 0.0 | 0.0 | 0.00 | 0.39 | 0.00 | 91 | 1013.7 | |
| 20260510014526 | 55 | 0.0 | 1.0 | 0.00 | 0.39 | 0.00 | 91 | 1013.8 | |
| 20260510013522 | 56 | 0.0 | 0.0 | 0.00 | 0.39 | 0.00 | 91 | 1013.8 | |
| 20260510012527 | 56 | 0.0 | 0.0 | 0.00 | 0.39 | 0.00 | 90 | 1013.9 | |
| 20260510011523 | 56 | 0.0 | 2.0 | 0.00 | 0.39 | 0.00 | 89 | 1013.9 | |
| 20260510010522 | 57 | 0.0 | 1.0 | 0.00 | 0.39 | 0.00 | 88 | 1014.0 | |
| 20260510005522 | 58 | 0.0 | 2.0 | 0.00 | 0.39 | 0.00 | 87 | 1014.1 | |
| 20260510004522 | 58 | 0.0 | 1.0 | 0.00 | 0.39 | 0.00 | 87 | 1014.2 | |
| 20260510003522 | 58 | 0.0 | 2.0 | 0.00 | 0.39 | 0.00 | 87 | 1014.3 | |
| 20260510002542 | 58 | 0.0 | 2.0 | 0.00 | 0.39 | 0.00 | 86 | 1014.3 | |
| 20260510001525 | 58 | 0.0 | 1.0 | 0.00 | 0.39 | 0.00 | 86 | 1014.3 | |
| 20260510000520 | 59 | 0.0 | 1.0 | 0.00 | 0.39 | 0.00 | 86 | 1014.4 | |
| 20260509235521 | 59 | 0.0 | 1.0 | 0.00 | 0.39 | 0.39 | 87 | 1014.5 | |
| 20260509234544 | 59 | 0.0 | 2.0 | 0.00 | 0.39 | 0.39 | 86 | 1014.6 | |
| 20260509233545 | 59 | 0.0 | 1.0 | 0.00 | 0.39 | 0.39 | 88 | 1014.6 | |
| 20260509232522 | 59 | 0.0 | 1.0 | 0.00 | 0.39 | 0.39 | 88 | 1014.6 | |
| 20260509231523 | 59 | 0.0 | 1.0 | 0.00 | 0.39 | 0.39 | 88 | 1014.7 | |
| 20260509230543 | 59 | 0.0 | 2.0 | 0.00 | 0.39 | 0.39 | 89 | 1014.6 | |
| 20260509225522 | 59 | 0.0 | 0.0 | 0.00 | 0.39 | 0.39 | 89 | 1014.6 | |
| 20260509224523 | 60 | 225 | 1.0 | 4.0 | 0.00 | 0.39 | 0.39 | 88 | 1014.9 |
| 20260509223522 | 60 | 225 | 1.0 | 3.0 | 0.00 | 0.39 | 0.39 | 88 | 1015.0 |
| 20260509222522 | 60 | 203 | 1.0 | 4.0 | 0.00 | 0.39 | 0.39 | 88 | 1015.0 |
| 20260509221601 | 60 | 225 | 1.0 | 5.0 | 0.00 | 0.39 | 0.39 | 89 | 1015.0 |
| 20260509220523 | 60 | 293 | 1.0 | 5.0 | 0.00 | 0.39 | 0.39 | 89 | 1014.9 |
| 20260509215542 | 60 | 0.0 | 1.0 | 0.00 | 0.39 | 0.39 | 89 | 1015.2 | |
| 20260509214521 | 60 | 0.0 | 3.0 | 0.00 | 0.39 | 0.39 | 90 | 1015.0 | |
| 20260509213524 | 60 | 0.0 | 3.0 | 0.00 | 0.39 | 0.39 | 89 | 1015.1 | |
| 20260509212542 | 60 | 0.0 | 3.0 | 0.00 | 0.39 | 0.39 | 89 | 1015.0 | |
| 20260509211545 | 61 | 0.0 | 1.0 | 0.00 | 0.39 | 0.39 | 88 | 1014.9 | |
| 20260509210521 | 61 | 0.0 | 2.0 | 0.00 | 0.39 | 0.39 | 88 | 1015.0 | |
| 20260509205522 | 61 | 0.0 | 1.0 | 0.00 | 0.39 | 0.39 | 89 | 1015.1 | |
| 20260509204522 | 60 | 0.0 | 1.0 | 0.00 | 0.39 | 0.39 | 89 | 1015.1 | |
| 20260509203524 | 60 | 0.0 | 0.0 | 0.00 | 0.39 | 0.39 | 88 | 1014.9 | |
| 20260509202522 | 61 | 0.0 | 0.0 | 0.00 | 0.39 | 0.39 | 88 | 1014.7 | |
| 20260509201521 | 61 | 0.0 | 1.0 | 0.00 | 0.39 | 0.39 | 87 | 1014.7 | |
| 20260509200522 | 61 | 0.0 | 2.0 | 0.00 | 0.39 | 0.39 | 87 | 1014.7 | |
| 20260509195522 | 61 | 0.0 | 2.0 | 0.00 | 0.39 | 0.39 | 87 | 1014.5 | |
| 20260509194521 | 61 | 0.0 | 4.0 | 0.00 | 0.39 | 0.39 | 87 | 1014.3 | |
| 20260509193524 | 61 | 0.0 | 1.0 | 0.00 | 0.39 | 0.39 | 88 | 1014.2 | |
| 20260509192522 | 61 | 0.0 | 3.0 | 0.00 | 0.39 | 0.39 | 88 | 1013.8 | |
| 20260509191541 | 61 | 0.0 | 1.0 | 0.00 | 0.39 | 0.39 | 87 | 1013.6 | |
| 20260509190521 | 61 | 0.0 | 1.0 | 0.00 | 0.39 | 0.39 | 87 | 1013.6 | |
| 20260509185521 | 62 | 0.0 | 2.0 | 0.00 | 0.39 | 0.39 | 87 | 1013.5 | |
| 20260509184541 | 62 | 0.0 | 3.0 | 0.00 | 0.39 | 0.39 | 87 | 1013.4 | |
| 20260509183521 | 62 | 0.0 | 1.0 | 0.00 | 0.39 | 0.39 | 87 | 1013.4 | |
| 20260509182523 | 62 | 135 | 1.0 | 4.0 | 0.00 | 0.39 | 0.39 | 88 | 1013.3 |
| 20260509181542 | 62 | 135 | 1.0 | 3.0 | 0.00 | 0.39 | 0.39 | 88 | 1013.3 |
| 20260509180602 | 62 | 0.0 | 2.0 | 0.00 | 0.39 | 0.39 | 88 | 1013.0 | |
| 20260509175527 | 62 | 158 | 2.0 | 5.0 | 0.00 | 0.39 | 0.39 | 87 | 1012.5 |
| 20260509174521 | 63 | 135 | 2.0 | 6.0 | 0.00 | 0.39 | 0.39 | 86 | 1012.3 |
| 20260509173521 | 64 | 68 | 2.0 | 6.0 | 0.00 | 0.39 | 0.39 | 83 | 1012.0 |
| 20260509172521 | 64 | 68 | 4.0 | 7.0 | 0.00 | 0.39 | 0.39 | 86 | 1012.0 |
| 20260509171521 | 63 | 68 | 2.0 | 5.0 | 0.00 | 0.39 | 0.39 | 94 | 1011.9 |
| 20260509170521 | 63 | 113 | 1.0 | 3.0 | 0.00 | 0.39 | 0.39 | 95 | 1011.8 |
| 20260509165521 | 64 | 0.0 | 3.0 | 0.00 | 0.39 | 0.39 | 96 | 1011.9 | |
| 20260509164521 | 63 | 0.0 | 2.0 | 0.00 | 0.39 | 0.39 | 97 | 1012.0 | |
| 20260509163521 | 62 | 135 | 1.0 | 5.0 | 0.00 | 0.39 | 0.39 | 96 | 1012.1 |
| 20260509162541 | 62 | 0.0 | 2.0 | 0.00 | 0.39 | 0.39 | 96 | 1012.1 | |
| 20260509161541 | 62 | 113 | 1.0 | 3.0 | 0.00 | 0.39 | 0.39 | 96 | 1012.1 |
| 20260509160521 | 62 | 113 | 2.0 | 5.0 | 0.00 | 0.39 | 0.39 | 96 | 1012.1 |
| 20260509155521 | 62 | 0.0 | 5.0 | 0.00 | 0.39 | 0.39 | 97 | 1012.1 | |
| 20260509154521 | 62 | 0.0 | 4.0 | 0.00 | 0.39 | 0.39 | 96 | 1012.2 | |
| 20260509153542 | 61 | 0.0 | 2.0 | 0.00 | 0.39 | 0.39 | 97 | 1012.2 | |
| 20260509152702 | 61 | 315 | 1.0 | 6.0 | 0.00 | 0.39 | 0.39 | 97 | 1012.3 |
| 20260509151521 | 60 | 315 | 3.0 | 6.0 | 0.00 | 0.39 | 0.39 | 96 | 1012.4 |
| 20260509150521 | 60 | 338 | 3.0 | 9.0 | 0.00 | 0.39 | 0.39 | 97 | 1012.4 |
| 20260509145521 | 60 | 293 | 2.0 | 8.0 | 0.00 | 0.39 | 0.39 | 97 | 1012.4 |
| 20260509144521 | 59 | 45 | 2.0 | 7.0 | 0.00 | 0.39 | 0.39 | 97 | 1012.4 |
| 20260509143521 | 59 | 315 | 3.0 | 6.0 | 0.00 | 0.39 | 0.39 | 97 | 1012.7 |
| 20260509142520 | 59 | 315 | 2.0 | 5.0 | 0.00 | 0.39 | 0.39 | 98 | 1012.8 |
| 20260509141541 | 58 | 315 | 4.0 | 7.0 | 0.00 | 0.39 | 0.39 | 98 | 1012.9 |
| 20260509140523 | 58 | 293 | 2.0 | 8.0 | 0.00 | 0.39 | 0.39 | 98 | 1012.6 |
| 20260509135522 | 58 | 68 | 4.0 | 10.0 | 0.01 | 0.39 | 0.39 | 98 | 1011.7 |
| 20260509134521 | 59 | 68 | 3.0 | 7.0 | 0.02 | 0.39 | 0.39 | 98 | 1011.9 |
| 20260509133521 | 58 | 45 | 2.0 | 5.0 | 0.03 | 0.39 | 0.39 | 98 | 1012.4 |
| 20260509132523 | 58 | 0.0 | 1.0 | 0.05 | 0.39 | 0.39 | 98 | 1012.8 | |
| 20260509131521 | 58 | 0.0 | 0.0 | 0.08 | 0.39 | 0.39 | 97 | 1013.1 | |
| 20260509130524 | 58 | 0.0 | 0.0 | 0.11 | 0.39 | 0.39 | 97 | 1013.1 | |
| 20260509125521 | 58 | 0.0 | 1.0 | 0.12 | 0.39 | 0.39 | 97 | 1013.2 |